LPA5855 UNNT-UGTB

Flight info

Callsign LPA5855
Flight time 4h 6m
Altitude 400
Route K0887F400 DCT LUNIM B808 DAKIN N55 OGANU P574 NOGBU N37 IPLED A921 KUFAN N61 DEDON DCT
Aircraft A359/H-SDE2E3GHIJ3J4J5LM1ORWXY/LB1D1

Departure

Time 2026-04-29 07:36
Airport Novosibirsk Tolmachevo Airport (UNNT)

Arrival

Time 2026-04-29 11:42
Airport Tbilisi International Airport (UGTB)
Time Latitude Longitude Altitude Speed Heading
2026-04-29 06:58 55.01161 82.67156 379 ft 0 kts 171°
2026-04-29 07:31 55.01158 82.67156 379 ft 0 kts 171°
2026-04-29 07:31 55.01134 82.67164 379 ft 5 kts 166°
2026-04-29 07:32 55.01109 82.67203 379 ft 5 kts 125°
2026-04-29 07:32 55.01103 82.67268 379 ft 6 kts 91°
2026-04-29 07:32 55.01106 82.67360 379 ft 9 kts 84°
2026-04-29 07:32 55.01130 82.67463 379 ft 10 kts 49°
2026-04-29 07:33 55.01194 82.67538 379 ft 12 kts 32°
2026-04-29 07:33 55.01270 82.67619 379 ft 14 kts 31°
2026-04-29 07:33 55.01333 82.67681 379 ft 0 kts 31°
2026-04-29 07:34 55.01334 82.67682 379 ft 2 kts 31°
2026-04-29 07:34 55.01388 82.67738 378 ft 11 kts 31°
2026-04-29 07:34 55.01462 82.67781 378 ft 8 kts 340°
2026-04-29 07:34 55.01476 82.67734 378 ft 5 kts 287°
2026-04-29 07:35 55.01478 82.67666 378 ft 7 kts 266°
2026-04-29 07:35 55.01477 82.67637 378 ft 0 kts 264°
2026-04-29 07:35 55.01452 82.67336 378 ft 60 kts 261°
2026-04-29 07:35 55.01351 82.66235 379 ft 123 kts 260°
2026-04-29 07:36 55.01182 82.64453 414 ft 172 kts 260°
2026-04-29 07:36 55.01019 82.62343 1087 ft 172 kts 262°
2026-04-29 07:36 55.00831 82.60222 1567 ft 186 kts 260°
2026-04-29 07:36 55.00608 82.57901 1833 ft 205 kts 260°
2026-04-29 07:37 55.00410 82.55396 2407 ft 211 kts 267°
2026-04-29 07:37 55.00649 82.52859 2911 ft 221 kts 288°
2026-04-29 07:37 55.01237 82.50260 3217 ft 239 kts 293°
2026-04-29 07:37 55.01910 82.47560 3779 ft 246 kts 292°
2026-04-29 07:38 55.02581 82.44801 4409 ft 248 kts 292°
2026-04-29 07:38 55.03252 82.42011 5051 ft 251 kts 292°
2026-04-29 07:38 55.03916 82.39177 5699 ft 254 kts 290°
2026-04-29 07:38 55.04258 82.36156 6277 ft 258 kts 269°
2026-04-29 07:39 55.04050 82.32977 6698 ft 269 kts 259°
2026-04-29 07:39 55.03690 82.29718 6950 ft 275 kts 258°
2026-04-29 07:39 55.03329 82.26447 6993 ft 276 kts 259°
2026-04-29 07:39 55.02976 82.23146 7000 ft 277 kts 259°
2026-04-29 07:40 55.02629 82.19850 7007 ft 277 kts 259°
2026-04-29 07:40 55.02288 82.16585 6997 ft 277 kts 259°
2026-04-29 07:40 55.01945 82.13290 6996 ft 277 kts 259°
2026-04-29 07:40 55.01600 82.09983 6999 ft 277 kts 259°
2026-04-29 07:41 55.01256 82.06683 6996 ft 277 kts 259°
2026-04-29 07:41 55.00911 82.03377 7002 ft 277 kts 259°
2026-04-29 07:41 55.00577 82.00071 6996 ft 277 kts 261°
2026-04-29 07:41 55.00415 81.96726 7103 ft 277 kts 267°
2026-04-29 07:42 55.00342 81.93343 7563 ft 281 kts 267°
2026-04-29 07:42 55.00265 81.89938 8258 ft 281 kts 267°
2026-04-29 07:42 55.00191 81.86528 8915 ft 283 kts 267°
2026-04-29 07:42 55.00116 81.83103 9541 ft 285 kts 267°
2026-04-29 07:43 55.00036 81.79630 10151 ft 288 kts 267°
2026-04-29 07:43 54.99953 81.76114 10467 ft 301 kts 267°
2026-04-29 07:43 54.99862 81.72374 10716 ft 316 kts 267°
2026-04-29 07:43 54.99766 81.68455 10963 ft 330 kts 267°
2026-04-29 07:44 54.99664 81.64377 11197 ft 344 kts 267°
2026-04-29 07:44 54.99557 81.60168 11583 ft 351 kts 267°
2026-04-29 07:44 54.99447 81.55904 12068 ft 354 kts 267°
2026-04-29 07:44 54.99336 81.51600 12570 ft 357 kts 267°
2026-04-29 07:45 54.99222 81.47273 13055 ft 359 kts 267°
2026-04-29 07:45 54.99105 81.42904 13533 ft 362 kts 267°
2026-04-29 07:45 54.98986 81.38509 14013 ft 365 kts 267°
2026-04-29 07:45 54.98864 81.34089 14470 ft 367 kts 267°
2026-04-29 07:46 54.98740 81.29631 14938 ft 370 kts 267°
2026-04-29 07:46 54.98615 81.25191 15392 ft 372 kts 267°
2026-04-29 07:46 54.98486 81.20671 15854 ft 375 kts 267°
2026-04-29 07:46 54.98354 81.16127 16304 ft 377 kts 266°
2026-04-29 07:47 54.98221 81.11548 16749 ft 380 kts 266°
2026-04-29 07:47 54.98085 81.06941 17174 ft 382 kts 266°
2026-04-29 07:47 54.97945 81.02306 17591 ft 385 kts 266°
2026-04-29 07:47 54.97803 80.97628 18005 ft 387 kts 266°
2026-04-29 07:48 54.97658 80.92936 18415 ft 389 kts 266°
2026-04-29 07:48 54.97460 80.88213 18809 ft 392 kts 264°
2026-04-29 07:48 54.97176 80.83481 19204 ft 394 kts 263°
2026-04-29 07:48 54.96855 80.78737 19589 ft 396 kts 263°
2026-04-29 07:49 54.96527 80.73962 19968 ft 399 kts 263°
2026-04-29 07:49 54.96207 80.69210 20329 ft 401 kts 263°
2026-04-29 07:49 54.95885 80.64322 20692 ft 403 kts 263°
2026-04-29 07:49 54.95579 80.59518 21046 ft 405 kts 263°
2026-04-29 07:50 54.95272 80.54622 21392 ft 408 kts 263°
2026-04-29 07:50 54.94964 80.49699 21732 ft 410 kts 263°
2026-04-29 07:50 54.94655 80.44766 22060 ft 412 kts 263°
2026-04-29 07:50 54.94340 80.39791 22387 ft 414 kts 263°
2026-04-29 07:51 54.94020 80.34796 22707 ft 416 kts 263°
2026-04-29 07:51 54.93697 80.29776 23012 ft 418 kts 263°
2026-04-29 07:51 54.93370 80.24749 23319 ft 420 kts 263°
2026-04-29 07:51 54.93040 80.19693 23614 ft 422 kts 263°
2026-04-29 07:52 54.92705 80.14610 23901 ft 424 kts 263°
2026-04-29 07:52 54.92367 80.09505 24182 ft 426 kts 263°
2026-04-29 07:52 54.92029 80.04440 24455 ft 427 kts 263°
2026-04-29 07:52 54.91683 79.99298 24722 ft 429 kts 263°
2026-04-29 07:53 54.91334 79.94134 24978 ft 431 kts 263°
2026-04-29 07:53 54.90982 79.88946 25244 ft 433 kts 263°
2026-04-29 07:53 54.90624 79.83731 25504 ft 434 kts 263°
2026-04-29 07:53 54.90263 79.78492 25765 ft 436 kts 263°
2026-04-29 07:54 54.89905 79.73316 26019 ft 438 kts 263°
2026-04-29 07:54 54.89537 79.68050 26277 ft 440 kts 263°
2026-04-29 07:54 54.89166 79.62764 26536 ft 441 kts 263°
2026-04-29 07:54 54.88792 79.57456 26798 ft 443 kts 263°
2026-04-29 07:55 54.88536 79.53859 26979 ft 444 kts 263°
2026-04-29 07:55 54.88154 79.48518 27256 ft 446 kts 263°
2026-04-29 07:55 54.87768 79.43158 27523 ft 448 kts 263°
2026-04-29 07:55 54.87384 79.37849 27800 ft 450 kts 262°
2026-04-29 07:56 54.86991 79.32467 28080 ft 452 kts 262°
2026-04-29 07:56 54.86592 79.27027 28354 ft 454 kts 262°
2026-04-29 07:56 54.86191 79.21581 28632 ft 456 kts 262°
2026-04-29 07:56 54.85785 79.16109 28908 ft 458 kts 262°
2026-04-29 07:57 54.85376 79.10620 29180 ft 460 kts 262°
2026-04-29 07:57 54.84963 79.05118 29448 ft 462 kts 262°
2026-04-29 07:57 54.84543 78.99565 29718 ft 464 kts 262°
2026-04-29 07:57 54.84122 78.94013 29995 ft 466 kts 262°
2026-04-29 07:58 54.83694 78.88426 30271 ft 468 kts 262°
2026-04-29 07:58 54.83264 78.82833 30548 ft 470 kts 262°
2026-04-29 07:58 54.82827 78.77192 30828 ft 472 kts 262°
2026-04-29 07:58 54.82387 78.71550 31109 ft 474 kts 262°
2026-04-29 07:59 54.81941 78.65865 31382 ft 476 kts 262°
2026-04-29 07:59 54.81491 78.60172 31640 ft 478 kts 262°
2026-04-29 07:59 54.81036 78.54441 31902 ft 480 kts 262°
2026-04-29 07:59 54.80577 78.48697 32149 ft 482 kts 262°
2026-04-29 08:00 54.80114 78.42938 32390 ft 483 kts 262°
2026-04-29 08:00 54.79646 78.37148 32633 ft 485 kts 262°
2026-04-29 08:00 54.79174 78.31349 32854 ft 487 kts 262°
2026-04-29 08:00 54.78704 78.25602 33077 ft 489 kts 262°
2026-04-29 08:01 54.78223 78.19769 33293 ft 490 kts 262°
2026-04-29 08:01 54.77737 78.13895 33506 ft 492 kts 262°
2026-04-29 08:01 54.77246 78.08015 33714 ft 494 kts 262°
2026-04-29 08:01 54.76752 78.02120 33916 ft 495 kts 261°
2026-04-29 08:02 54.76254 77.96218 34194 ft 495 kts 261°
2026-04-29 08:02 54.75755 77.90344 34504 ft 494 kts 261°
2026-04-29 08:02 54.75253 77.84459 34794 ft 493 kts 261°
2026-04-29 08:02 54.74748 77.78585 35081 ft 492 kts 261°
2026-04-29 08:03 54.74242 77.72736 35375 ft 492 kts 261°
2026-04-29 08:03 54.73734 77.66886 35655 ft 491 kts 261°
2026-04-29 08:03 54.73223 77.61033 35939 ft 491 kts 261°
2026-04-29 08:03 54.72709 77.55186 36203 ft 490 kts 261°
2026-04-29 08:04 54.72194 77.49361 36463 ft 490 kts 261°
2026-04-29 08:04 54.71675 77.43527 36708 ft 490 kts 261°
2026-04-29 08:04 54.71167 77.37844 37646 ft 475 kts 261°
2026-04-29 08:04 54.70668 77.32291 38614 ft 457 kts 261°
2026-04-29 08:05 54.70182 77.26903 39157 ft 451 kts 261°
2026-04-29 08:05 54.69696 77.21536 39294 ft 453 kts 261°
2026-04-29 08:05 54.69205 77.16156 39411 ft 454 kts 261°
2026-04-29 08:05 54.68708 77.10745 39568 ft 454 kts 261°
2026-04-29 08:06 54.68211 77.05360 39739 ft 454 kts 261°
2026-04-29 08:06 54.67711 76.99966 39890 ft 454 kts 260°
2026-04-29 08:06 54.67208 76.94565 40038 ft 455 kts 260°
2026-04-29 08:06 54.66703 76.89165 40195 ft 455 kts 260°
2026-04-29 08:07 54.65684 76.78349 40295 ft 457 kts 260°
2026-04-29 08:07 54.64654 76.67521 40292 ft 456 kts 260°
2026-04-29 08:08 54.63616 76.56722 40289 ft 456 kts 260°
2026-04-29 08:08 54.62575 76.45993 40283 ft 456 kts 260°
2026-04-29 08:09 54.61518 76.35207 40284 ft 456 kts 259°
2026-04-29 08:09 54.60450 76.24414 40276 ft 456 kts 259°
2026-04-29 08:10 54.59373 76.13635 40277 ft 456 kts 259°
2026-04-29 08:10 54.58288 76.02869 40278 ft 456 kts 259°
2026-04-29 08:11 54.57193 75.92102 40274 ft 456 kts 259°
2026-04-29 08:11 54.56088 75.81330 40271 ft 456 kts 259°
2026-04-29 08:12 54.54979 75.70639 40268 ft 456 kts 259°
2026-04-29 08:12 54.53858 75.59911 40265 ft 455 kts 259°
2026-04-29 08:13 54.52727 75.49173 40264 ft 455 kts 259°
2026-04-29 08:13 54.51588 75.38451 40262 ft 455 kts 258°
2026-04-29 08:14 54.50439 75.27739 40259 ft 455 kts 258°
2026-04-29 08:14 54.49280 75.17019 40255 ft 455 kts 258°
2026-04-29 08:15 54.48112 75.06312 40253 ft 455 kts 258°
2026-04-29 08:15 54.46936 74.95617 40251 ft 455 kts 258°
2026-04-29 08:16 54.45759 74.85008 40251 ft 455 kts 258°
2026-04-29 08:16 54.44565 74.74332 40247 ft 455 kts 258°
2026-04-29 08:17 54.43360 74.63656 40248 ft 455 kts 258°
2026-04-29 08:17 54.42147 74.52996 40241 ft 455 kts 258°
2026-04-29 08:18 54.40924 74.42333 40243 ft 455 kts 257°
2026-04-29 08:18 54.39691 74.31680 40239 ft 455 kts 257°
2026-04-29 08:19 54.38451 74.21042 40240 ft 455 kts 257°
2026-04-29 08:19 54.37200 74.10404 40239 ft 455 kts 257°
2026-04-29 08:20 54.35939 73.99770 40237 ft 455 kts 257°
2026-04-29 08:20 54.34670 73.89143 40235 ft 454 kts 257°
2026-04-29 08:21 54.33406 73.78606 40230 ft 454 kts 257°
2026-04-29 08:21 54.32117 73.68011 40234 ft 454 kts 257°
2026-04-29 08:22 54.30818 73.57415 40231 ft 454 kts 257°
2026-04-29 08:22 54.29509 73.46809 40230 ft 454 kts 257°
2026-04-29 08:23 54.28195 73.36235 40228 ft 454 kts 256°
2026-04-29 08:23 54.26879 73.25723 40230 ft 454 kts 256°
2026-04-29 08:24 54.25547 73.15161 40233 ft 454 kts 256°
2026-04-29 08:24 54.24205 73.04606 40233 ft 454 kts 256°
2026-04-29 08:25 54.22853 72.94051 40234 ft 454 kts 256°
2026-04-29 08:25 54.21493 72.83512 40232 ft 455 kts 256°
2026-04-29 08:26 54.20121 72.72953 40226 ft 455 kts 256°
2026-04-29 08:26 54.18740 72.62412 40227 ft 455 kts 256°
2026-04-29 08:27 54.17351 72.51881 40222 ft 455 kts 256°
2026-04-29 08:27 54.15710 72.41532 40222 ft 453 kts 248°
2026-04-29 08:28 54.12786 72.32060 40215 ft 452 kts 238°
2026-04-29 08:28 54.09442 72.22974 40216 ft 452 kts 237°
2026-04-29 08:29 54.06046 72.13940 40215 ft 452 kts 237°
2026-04-29 08:29 54.02668 72.04917 40212 ft 453 kts 237°
2026-04-29 08:30 53.97598 71.91355 40210 ft 453 kts 237°
2026-04-29 08:31 53.94215 71.82339 40211 ft 453 kts 237°
2026-04-29 08:31 53.90823 71.73332 40210 ft 453 kts 237°
2026-04-29 08:32 53.87420 71.64333 40207 ft 453 kts 237°
2026-04-29 08:32 53.84016 71.55361 40206 ft 453 kts 237°
2026-04-29 08:32 53.82306 71.50869 39615 ft 454 kts 237°
2026-04-29 08:33 53.80595 71.46379 40272 ft 456 kts 237°
2026-04-29 08:33 53.77175 71.37430 40202 ft 454 kts 237°
2026-04-29 08:34 53.73738 71.28469 40197 ft 454 kts 237°
2026-04-29 08:34 53.70297 71.19529 40198 ft 454 kts 237°
2026-04-29 08:35 53.66848 71.10601 40196 ft 454 kts 237°
2026-04-29 08:35 53.63387 71.01676 40194 ft 455 kts 237°
2026-04-29 08:36 53.59922 70.92771 40192 ft 455 kts 237°
2026-04-29 08:36 53.56450 70.83877 40186 ft 455 kts 237°
2026-04-29 08:37 53.52967 70.74989 40185 ft 455 kts 236°
2026-04-29 08:37 53.49496 70.66161 40182 ft 455 kts 236°
2026-04-29 08:38 53.45997 70.57295 40183 ft 455 kts 236°
2026-04-29 08:38 53.42492 70.48445 40179 ft 455 kts 236°
2026-04-29 08:39 53.38980 70.39606 40174 ft 455 kts 236°
2026-04-29 08:39 53.35462 70.30786 40176 ft 456 kts 236°
2026-04-29 08:40 53.31931 70.21963 40177 ft 456 kts 236°
2026-04-29 08:40 53.28396 70.13159 40180 ft 456 kts 236°
2026-04-29 08:41 53.24879 70.04431 40180 ft 456 kts 236°
2026-04-29 08:41 53.21328 69.95651 40179 ft 456 kts 236°
2026-04-29 08:42 53.17775 69.86894 40181 ft 456 kts 236°
2026-04-29 08:42 53.14210 69.78140 40178 ft 456 kts 236°
2026-04-29 08:43 53.11245 69.70881 40178 ft 456 kts 236°
2026-04-29 08:43 53.07677 69.62174 40178 ft 456 kts 236°
2026-04-29 08:44 53.04091 69.53455 40172 ft 456 kts 236°
2026-04-29 08:44 53.00502 69.44755 40168 ft 456 kts 236°
2026-04-29 08:45 52.96903 69.36062 40169 ft 456 kts 236°
2026-04-29 08:45 52.93305 69.27401 40168 ft 456 kts 236°
2026-04-29 08:46 52.89694 69.18738 40167 ft 456 kts 236°
2026-04-29 08:46 52.86103 69.10151 40166 ft 456 kts 235°
2026-04-29 08:47 52.82487 69.01536 40166 ft 456 kts 235°
2026-04-29 08:47 52.78860 68.92922 40165 ft 456 kts 235°
2026-04-29 08:48 52.75225 68.84322 40165 ft 456 kts 235°
2026-04-29 08:48 52.71583 68.75733 40164 ft 456 kts 235°
2026-04-29 08:49 52.67936 68.67159 40165 ft 456 kts 235°
2026-04-29 08:49 52.64288 68.58614 40166 ft 456 kts 235°
2026-04-29 08:50 52.60629 68.50070 40166 ft 456 kts 235°
2026-04-29 08:50 52.56999 68.41621 40164 ft 456 kts 235°
2026-04-29 08:51 52.53323 68.33095 40164 ft 456 kts 235°
2026-04-29 08:51 52.49650 68.24603 40161 ft 456 kts 234°
2026-04-29 08:52 52.45962 68.16108 40164 ft 456 kts 234°
2026-04-29 08:52 52.42272 68.07633 40162 ft 456 kts 234°
2026-04-29 08:53 52.38577 67.99175 40159 ft 456 kts 234°
2026-04-29 08:53 52.35471 67.92088 40159 ft 456 kts 234°
2026-04-29 08:54 52.31684 67.83475 40158 ft 456 kts 234°
2026-04-29 08:54 52.27993 67.75104 40155 ft 456 kts 234°
2026-04-29 08:55 52.24277 67.66707 40157 ft 456 kts 234°
2026-04-29 08:55 52.20559 67.58331 40154 ft 456 kts 234°
2026-04-29 08:56 52.16882 67.49944 40154 ft 456 kts 235°
2026-04-29 08:56 52.13289 67.41427 40153 ft 455 kts 236°
2026-04-29 08:57 52.09704 67.32942 40154 ft 455 kts 235°
2026-04-29 08:57 52.06089 67.24477 40151 ft 455 kts 235°
2026-04-29 08:58 52.02499 67.16123 40150 ft 455 kts 235°
2026-04-29 08:58 51.98835 67.07631 40149 ft 455 kts 235°
2026-04-29 08:59 51.95200 66.99229 40149 ft 455 kts 235°
2026-04-29 08:59 51.91605 66.90946 40148 ft 455 kts 235°
2026-04-29 09:00 51.87938 66.82525 40148 ft 454 kts 235°
2026-04-29 09:00 51.84295 66.74185 40148 ft 454 kts 235°
2026-04-29 09:01 51.80637 66.65839 40145 ft 454 kts 234°
2026-04-29 09:01 51.76980 66.57520 40141 ft 454 kts 234°
2026-04-29 09:02 51.73320 66.49223 40144 ft 454 kts 234°
2026-04-29 09:02 51.69649 66.40928 40147 ft 454 kts 234°
2026-04-29 09:03 51.65978 66.32659 40143 ft 454 kts 234°
2026-04-29 09:03 51.62304 66.24408 40140 ft 453 kts 234°
2026-04-29 09:04 51.58632 66.16188 40147 ft 453 kts 234°
2026-04-29 09:04 51.54937 66.07947 40145 ft 453 kts 234°
2026-04-29 09:05 51.51270 65.99792 40143 ft 453 kts 234°
2026-04-29 09:05 51.47582 65.91614 40143 ft 453 kts 234°
2026-04-29 09:06 51.43885 65.83442 40143 ft 453 kts 234°
2026-04-29 09:06 51.40170 65.75259 40145 ft 453 kts 234°
2026-04-29 09:07 51.36466 65.67125 40145 ft 453 kts 234°
2026-04-29 09:07 51.32743 65.58974 40141 ft 453 kts 234°
2026-04-29 09:08 51.29026 65.50862 40139 ft 452 kts 234°
2026-04-29 09:08 51.25300 65.42757 40138 ft 452 kts 233°
2026-04-29 09:09 51.21574 65.34675 40142 ft 452 kts 233°
2026-04-29 09:09 51.17863 65.26651 40142 ft 452 kts 233°
2026-04-29 09:10 51.14125 65.18595 40140 ft 452 kts 233°
2026-04-29 09:10 51.10385 65.10557 40138 ft 452 kts 233°
2026-04-29 09:11 51.06632 65.02518 40138 ft 452 kts 233°
2026-04-29 09:11 51.02880 64.94506 40138 ft 452 kts 233°
2026-04-29 09:12 50.99126 64.86514 40137 ft 452 kts 233°
2026-04-29 09:12 50.95361 64.78523 40137 ft 452 kts 233°
2026-04-29 09:13 50.91596 64.70556 40137 ft 452 kts 233°
2026-04-29 09:13 50.87821 64.62593 40136 ft 451 kts 233°
2026-04-29 09:14 50.84047 64.54655 40133 ft 451 kts 233°
2026-04-29 09:14 50.80258 64.46732 40135 ft 451 kts 233°
2026-04-29 09:15 50.76493 64.38872 40135 ft 451 kts 233°
2026-04-29 09:15 50.72704 64.30968 40136 ft 451 kts 233°
2026-04-29 09:16 50.68959 64.23173 40133 ft 451 kts 233°
2026-04-29 09:16 50.65123 64.15215 40133 ft 451 kts 233°
2026-04-29 09:17 50.61327 64.07365 40130 ft 451 kts 233°
2026-04-29 09:17 50.57515 63.99505 40134 ft 450 kts 233°
2026-04-29 09:18 50.53740 63.91744 40138 ft 450 kts 233°
2026-04-29 09:18 50.49921 63.83915 40133 ft 450 kts 233°
2026-04-29 09:19 50.46106 63.76120 40131 ft 450 kts 233°
2026-04-29 09:19 50.42290 63.68344 40131 ft 449 kts 233°
2026-04-29 09:20 50.38471 63.60587 40132 ft 449 kts 232°
2026-04-29 09:20 50.34646 63.52839 40129 ft 449 kts 232°
2026-04-29 09:21 50.30819 63.45111 40128 ft 449 kts 232°
2026-04-29 09:21 50.27011 63.37443 40125 ft 449 kts 232°
2026-04-29 09:22 50.23181 63.29755 40124 ft 448 kts 232°
2026-04-29 09:22 50.19407 63.22199 40125 ft 448 kts 232°
2026-04-29 09:23 50.15483 63.14366 40126 ft 448 kts 232°
2026-04-29 09:23 50.11670 63.06779 40122 ft 448 kts 232°
2026-04-29 09:24 50.07830 62.99158 40122 ft 447 kts 232°
2026-04-29 09:24 50.03768 62.91803 40125 ft 448 kts 225°
2026-04-29 09:25 49.99481 62.85505 40119 ft 448 kts 224°
2026-04-29 09:25 49.94872 62.78973 40119 ft 448 kts 224°
2026-04-29 09:26 49.90262 62.72459 40118 ft 448 kts 224°
2026-04-29 09:26 49.85662 62.65948 40115 ft 448 kts 224°
2026-04-29 09:27 49.81093 62.59483 40116 ft 447 kts 224°
2026-04-29 09:27 49.76512 62.52981 40111 ft 447 kts 225°
2026-04-29 09:28 49.72425 62.45780 40115 ft 446 kts 232°
2026-04-29 09:28 49.68555 62.38342 40114 ft 445 kts 232°
2026-04-29 09:29 49.64713 62.30894 40111 ft 445 kts 232°
2026-04-29 09:29 49.58901 62.19720 40111 ft 445 kts 232°
2026-04-29 09:30 49.55671 62.13551 40111 ft 445 kts 232°
2026-04-29 09:30 49.51783 62.06147 40108 ft 445 kts 232°
2026-04-29 09:31 49.47892 61.98755 40107 ft 444 kts 232°
2026-04-29 09:31 49.43988 61.91359 40109 ft 444 kts 232°
2026-04-29 09:32 49.40096 61.84005 40107 ft 444 kts 232°
2026-04-29 09:32 49.36190 61.76647 40106 ft 444 kts 232°
2026-04-29 09:33 49.32293 61.69323 40106 ft 444 kts 232°
2026-04-29 09:33 49.28402 61.62032 40105 ft 443 kts 231°
2026-04-29 09:34 49.24504 61.54750 40104 ft 443 kts 231°
2026-04-29 09:34 49.20578 61.47435 40102 ft 443 kts 231°
2026-04-29 09:35 49.16661 61.40155 40101 ft 443 kts 231°
2026-04-29 09:35 49.12743 61.32895 40102 ft 442 kts 231°
2026-04-29 09:36 49.08823 61.25650 40098 ft 442 kts 231°
2026-04-29 09:36 49.04901 61.18421 40101 ft 442 kts 231°
2026-04-29 09:37 49.00972 61.11200 40099 ft 442 kts 231°
2026-04-29 09:37 48.97046 61.04004 40095 ft 442 kts 231°
2026-04-29 09:38 48.93142 60.96867 40097 ft 442 kts 231°
2026-04-29 09:38 48.89198 60.89677 40093 ft 442 kts 231°
2026-04-29 09:39 48.85257 60.82511 40092 ft 442 kts 231°
2026-04-29 09:39 48.81315 60.75364 40091 ft 441 kts 231°
2026-04-29 09:40 48.77371 60.68231 40092 ft 441 kts 231°
2026-04-29 09:40 48.73424 60.61112 40090 ft 441 kts 231°
2026-04-29 09:41 48.69466 60.53993 40092 ft 441 kts 231°
2026-04-29 09:41 48.65514 60.46904 40093 ft 441 kts 231°
2026-04-29 09:42 48.61579 60.39862 40092 ft 441 kts 231°
2026-04-29 09:42 48.57615 60.32789 40092 ft 441 kts 231°
2026-04-29 09:43 48.53637 60.25710 40091 ft 441 kts 230°
2026-04-29 09:43 48.49658 60.18648 40093 ft 441 kts 230°
2026-04-29 09:44 48.45703 60.11646 40093 ft 441 kts 230°
2026-04-29 09:44 48.41725 60.04622 40092 ft 441 kts 230°
2026-04-29 09:45 48.37743 59.97611 40089 ft 441 kts 230°
2026-04-29 09:45 48.33757 59.90610 40090 ft 441 kts 230°
2026-04-29 09:46 48.29760 59.83608 40090 ft 441 kts 230°
2026-04-29 09:46 48.25770 59.76636 40090 ft 441 kts 230°
2026-04-29 09:47 48.21769 59.69665 40091 ft 441 kts 230°
2026-04-29 09:47 48.17791 59.62751 40090 ft 440 kts 230°
2026-04-29 09:48 48.13784 59.55805 40093 ft 440 kts 230°
2026-04-29 09:48 48.09778 59.48880 40088 ft 440 kts 230°
2026-04-29 09:49 48.05762 59.41953 40083 ft 440 kts 230°
2026-04-29 09:49 48.01769 59.35086 40085 ft 440 kts 230°
2026-04-29 09:50 47.97743 59.28179 40102 ft 440 kts 230°
2026-04-29 09:50 47.93722 59.21298 40097 ft 440 kts 230°
2026-04-29 09:51 47.89697 59.14429 40082 ft 440 kts 230°
2026-04-29 09:51 47.85662 59.07558 40083 ft 440 kts 230°
2026-04-29 09:52 47.81653 59.00751 40082 ft 440 kts 230°
2026-04-29 09:52 47.77592 58.93873 40099 ft 440 kts 229°
2026-04-29 09:53 47.73551 58.87047 40094 ft 439 kts 229°
2026-04-29 09:53 47.69503 58.80227 40079 ft 440 kts 229°
2026-04-29 09:54 47.65453 58.73418 40090 ft 440 kts 229°
2026-04-29 09:54 47.61422 58.66660 40090 ft 440 kts 229°
2026-04-29 09:55 47.57364 58.59875 40092 ft 440 kts 229°
2026-04-29 09:55 47.53304 58.53102 40088 ft 440 kts 229°
2026-04-29 09:56 47.49232 58.46328 40088 ft 440 kts 229°
2026-04-29 09:56 47.45158 58.39567 40089 ft 440 kts 229°
2026-04-29 09:57 47.41086 58.32824 40084 ft 440 kts 229°
2026-04-29 09:57 47.37036 58.26136 40082 ft 440 kts 229°
2026-04-29 09:58 47.32954 58.19414 40079 ft 440 kts 229°
2026-04-29 09:58 47.28865 58.12697 40082 ft 440 kts 229°
2026-04-29 09:59 47.24732 58.06055 40083 ft 440 kts 228°
2026-04-29 09:59 47.20570 57.99442 40079 ft 440 kts 228°
2026-04-29 10:00 47.16414 57.92838 40079 ft 440 kts 228°
2026-04-29 10:00 47.12260 57.86238 40082 ft 440 kts 228°
2026-04-29 10:01 47.08106 57.79648 40081 ft 440 kts 228°
2026-04-29 10:01 47.03942 57.73059 40078 ft 440 kts 228°
2026-04-29 10:02 46.99779 57.66490 40082 ft 440 kts 228°
2026-04-29 10:02 46.95614 57.59932 40081 ft 440 kts 228°
2026-04-29 10:03 46.91438 57.53374 40086 ft 440 kts 228°
2026-04-29 10:03 46.87290 57.46874 40082 ft 440 kts 228°
2026-04-29 10:04 46.83115 57.40350 40082 ft 439 kts 227°
2026-04-29 10:04 46.78914 57.33802 40083 ft 440 kts 227°
2026-04-29 10:05 46.74751 57.27327 40082 ft 440 kts 227°
2026-04-29 10:05 46.70567 57.20837 40083 ft 440 kts 227°
2026-04-29 10:06 46.66370 57.14342 40082 ft 440 kts 227°
2026-04-29 10:06 46.62177 57.07868 40083 ft 440 kts 227°
2026-04-29 10:07 46.57974 57.01394 40083 ft 440 kts 227°
2026-04-29 10:07 46.53775 56.94942 40086 ft 440 kts 227°
2026-04-29 10:08 46.49587 56.88465 40078 ft 440 kts 230°
2026-04-29 10:08 46.46070 56.81221 40085 ft 439 kts 238°
2026-04-29 10:09 46.42915 56.73636 40083 ft 439 kts 239°
2026-04-29 10:09 46.39805 56.66015 40081 ft 439 kts 239°
2026-04-29 10:10 46.36701 56.58463 40083 ft 439 kts 238°
2026-04-29 10:10 46.33556 56.50873 40081 ft 439 kts 238°
2026-04-29 10:11 46.30411 56.43316 40082 ft 439 kts 238°
2026-04-29 10:11 46.27256 56.35755 40081 ft 439 kts 238°
2026-04-29 10:12 46.24093 56.28196 40082 ft 439 kts 238°
2026-04-29 10:12 46.20928 56.20651 40081 ft 439 kts 238°
2026-04-29 10:13 46.17759 56.13116 40079 ft 439 kts 238°
2026-04-29 10:13 46.14577 56.05572 40080 ft 440 kts 238°
2026-04-29 10:14 46.11393 55.98043 40075 ft 440 kts 238°
2026-04-29 10:14 46.08202 55.90515 40070 ft 440 kts 238°
2026-04-29 10:15 46.05007 55.83001 40071 ft 440 kts 238°
2026-04-29 10:15 46.01805 55.75490 40062 ft 440 kts 238°
2026-04-29 10:16 45.99144 55.69264 40080 ft 440 kts 238°
2026-04-29 10:16 45.95934 55.61771 40084 ft 440 kts 238°
2026-04-29 10:17 45.92195 55.53072 40081 ft 440 kts 238°
2026-04-29 10:17 45.88974 55.45596 40076 ft 440 kts 237°
2026-04-29 10:18 45.86275 55.39348 40067 ft 440 kts 237°
2026-04-29 10:18 45.83070 55.31946 40070 ft 440 kts 237°
2026-04-29 10:19 45.79839 55.24505 40088 ft 440 kts 237°
2026-04-29 10:19 45.76603 55.17072 40067 ft 439 kts 237°
2026-04-29 10:20 45.73361 55.09645 40074 ft 439 kts 237°
2026-04-29 10:20 45.70119 55.02236 40081 ft 440 kts 237°
2026-04-29 10:21 45.66868 54.94827 40079 ft 440 kts 237°
2026-04-29 10:21 45.63609 54.87418 40078 ft 440 kts 237°
2026-04-29 10:22 45.60343 54.80014 40077 ft 440 kts 237°
2026-04-29 10:22 45.57095 54.72673 40075 ft 440 kts 237°
2026-04-29 10:23 45.53823 54.65292 40079 ft 440 kts 237°
2026-04-29 10:23 45.50540 54.57919 40081 ft 440 kts 237°
2026-04-29 10:24 45.47250 54.50557 40081 ft 441 kts 237°
2026-04-29 10:24 45.43951 54.43192 40084 ft 441 kts 237°
2026-04-29 10:25 45.40649 54.35838 40082 ft 441 kts 237°
2026-04-29 10:25 45.37339 54.28486 40087 ft 441 kts 237°
2026-04-29 10:26 45.34050 54.21199 40086 ft 441 kts 237°
2026-04-29 10:26 45.30735 54.13873 40087 ft 441 kts 237°
2026-04-29 10:27 45.25748 54.02886 40090 ft 440 kts 236°
2026-04-29 10:28 45.22427 53.95595 40087 ft 440 kts 236°
2026-04-29 10:28 45.19100 53.88292 40084 ft 440 kts 236°
2026-04-29 10:29 45.15776 53.81008 40087 ft 440 kts 236°
2026-04-29 10:29 45.12448 53.73735 40089 ft 440 kts 236°
2026-04-29 10:30 45.09110 53.66460 40089 ft 440 kts 236°
2026-04-29 10:30 45.05785 53.59230 40088 ft 441 kts 236°
2026-04-29 10:31 45.02441 53.51976 40084 ft 441 kts 236°
2026-04-29 10:31 44.99090 53.44727 40088 ft 441 kts 236°
2026-04-29 10:32 44.95729 53.37474 40085 ft 441 kts 236°
2026-04-29 10:32 44.92367 53.30238 40091 ft 441 kts 236°
2026-04-29 10:33 44.89002 53.23010 40076 ft 440 kts 236°
2026-04-29 10:33 44.85650 53.15829 40081 ft 437 kts 236°
2026-04-29 10:34 44.82301 53.08671 40080 ft 437 kts 236°
2026-04-29 10:34 44.78965 53.01568 40076 ft 438 kts 235°
2026-04-29 10:35 44.75597 52.94427 40077 ft 438 kts 235°
2026-04-29 10:35 44.72220 52.87281 40094 ft 438 kts 235°
2026-04-29 10:36 44.68843 52.80149 40094 ft 438 kts 235°
2026-04-29 10:36 44.65462 52.73023 40084 ft 438 kts 235°
2026-04-29 10:37 44.62068 52.65890 40088 ft 439 kts 235°
2026-04-29 10:37 44.58677 52.58779 40087 ft 439 kts 235°
2026-04-29 10:38 44.55273 52.51659 40097 ft 439 kts 235°
2026-04-29 10:38 44.51865 52.44549 40092 ft 439 kts 235°
2026-04-29 10:39 44.48468 52.37477 40099 ft 440 kts 234°
2026-04-29 10:39 44.45050 52.30381 40103 ft 440 kts 234°
2026-04-29 10:40 44.41623 52.23282 40102 ft 440 kts 234°
2026-04-29 10:40 44.38188 52.16185 40095 ft 440 kts 234°
2026-04-29 10:41 44.34809 52.09036 40097 ft 441 kts 236°
2026-04-29 10:41 44.31536 52.01781 40095 ft 441 kts 236°
2026-04-29 10:42 44.28260 51.94546 40093 ft 441 kts 236°
2026-04-29 10:42 44.24956 51.87329 40094 ft 441 kts 236°
2026-04-29 10:43 44.21639 51.80131 40091 ft 441 kts 236°
2026-04-29 10:43 44.18315 51.72935 40088 ft 441 kts 236°
2026-04-29 10:44 44.14986 51.65744 40089 ft 442 kts 236°
2026-04-29 10:44 44.11651 51.58557 40091 ft 442 kts 236°
2026-04-29 10:45 44.08335 51.51428 40087 ft 442 kts 236°
2026-04-29 10:45 44.04991 51.44256 40083 ft 442 kts 236°
2026-04-29 10:46 44.01643 51.37094 40085 ft 442 kts 235°
2026-04-29 10:46 43.98285 51.29929 40080 ft 442 kts 235°
2026-04-29 10:47 43.94921 51.22767 40076 ft 443 kts 235°
2026-04-29 10:47 43.91551 51.15612 40074 ft 443 kts 235°
2026-04-29 10:48 43.88219 51.08504 40071 ft 443 kts 237°
2026-04-29 10:48 43.85521 51.00768 40077 ft 445 kts 244°
2026-04-29 10:49 43.83151 50.92825 40075 ft 446 kts 245°
2026-04-29 10:49 43.80817 50.84865 40079 ft 446 kts 245°
2026-04-29 10:50 43.78467 50.76917 40081 ft 446 kts 245°
2026-04-29 10:50 43.76099 50.68977 40081 ft 446 kts 245°
2026-04-29 10:51 43.73720 50.61041 40081 ft 447 kts 245°
2026-04-29 10:51 43.71334 50.53105 40082 ft 447 kts 245°
2026-04-29 10:52 43.68943 50.45177 40080 ft 447 kts 245°
2026-04-29 10:52 43.66562 50.37328 40085 ft 445 kts 246°
2026-04-29 10:53 43.64179 50.29463 40084 ft 444 kts 246°
2026-04-29 10:53 43.61792 50.21611 40081 ft 444 kts 246°
2026-04-29 10:54 43.59398 50.13761 40083 ft 444 kts 246°
2026-04-29 10:54 43.56997 50.05921 40085 ft 444 kts 246°
2026-04-29 10:55 43.54593 49.98089 40085 ft 444 kts 246°
2026-04-29 10:55 43.52175 49.90240 40087 ft 444 kts 246°
2026-04-29 10:56 43.49763 49.82431 40084 ft 444 kts 246°
2026-04-29 10:56 43.47341 49.74616 40087 ft 443 kts 246°
2026-04-29 10:57 43.44933 49.66867 40091 ft 443 kts 246°
2026-04-29 10:57 43.42501 49.59064 40091 ft 443 kts 246°
2026-04-29 10:58 43.40047 49.51289 40092 ft 443 kts 244°
2026-04-29 10:58 43.37084 49.43866 40094 ft 443 kts 240°
2026-04-29 10:59 43.33982 49.36561 40097 ft 443 kts 239°
2026-04-29 10:59 43.30854 49.29266 40100 ft 443 kts 239°
2026-04-29 11:00 43.27731 49.21982 40098 ft 443 kts 239°
2026-04-29 11:00 43.24610 49.14700 40102 ft 443 kts 239°
2026-04-29 11:01 43.21488 49.07430 40103 ft 443 kts 239°
2026-04-29 11:01 43.18356 49.00156 40105 ft 442 kts 239°
2026-04-29 11:02 43.15247 48.92955 40106 ft 442 kts 239°
2026-04-29 11:02 43.12091 48.85664 40106 ft 442 kts 239°
2026-04-29 11:03 43.08978 48.78490 40111 ft 442 kts 239°
2026-04-29 11:03 43.05836 48.71262 40110 ft 441 kts 239°
2026-04-29 11:04 43.02696 48.64059 40116 ft 441 kts 239°
2026-04-29 11:04 42.99551 48.56866 40117 ft 441 kts 239°
2026-04-29 11:05 42.96400 48.49677 40119 ft 441 kts 239°
2026-04-29 11:05 42.93242 48.42487 40123 ft 441 kts 239°
2026-04-29 11:06 42.90083 48.35313 40120 ft 442 kts 239°
2026-04-29 11:06 42.87446 48.29339 40126 ft 442 kts 239°
2026-04-29 11:07 42.84275 48.22169 40126 ft 442 kts 239°
2026-04-29 11:07 42.81096 48.14998 40125 ft 442 kts 239°
2026-04-29 11:08 42.77915 48.07842 40133 ft 442 kts 238°
2026-04-29 11:08 42.74728 48.00689 40143 ft 442 kts 238°
2026-04-29 11:09 42.71536 47.93542 40146 ft 442 kts 238°
2026-04-29 11:09 42.68341 47.86405 40148 ft 442 kts 238°
2026-04-29 11:10 42.65132 47.79254 40150 ft 442 kts 238°
2026-04-29 11:10 42.61917 47.72133 40153 ft 442 kts 238°
2026-04-29 11:11 42.58715 47.65058 40143 ft 442 kts 238°
2026-04-29 11:11 42.55493 47.57949 40139 ft 443 kts 238°
2026-04-29 11:12 42.52264 47.50838 40128 ft 443 kts 238°
2026-04-29 11:12 42.49030 47.43735 40119 ft 443 kts 238°
2026-04-29 11:13 42.45788 47.36631 40107 ft 443 kts 238°
2026-04-29 11:13 42.42547 47.29549 40096 ft 443 kts 238°
2026-04-29 11:14 42.39291 47.22450 40086 ft 443 kts 238°
2026-04-29 11:14 42.36035 47.15366 40073 ft 443 kts 238°
2026-04-29 11:15 42.32798 47.08341 40062 ft 443 kts 238°
2026-04-29 11:15 42.29531 47.01269 40057 ft 443 kts 238°
2026-04-29 11:16 42.26259 46.94201 40049 ft 443 kts 237°
2026-04-29 11:16 42.22983 46.87144 39912 ft 443 kts 237°
2026-04-29 11:16 42.21347 46.83624 39666 ft 442 kts 237°
2026-04-29 11:17 42.19710 46.80105 39433 ft 443 kts 237°
2026-04-29 11:17 42.18072 46.76588 39212 ft 443 kts 237°
2026-04-29 11:17 42.16430 46.73068 38985 ft 443 kts 237°
2026-04-29 11:17 42.14791 46.69559 38762 ft 443 kts 237°
2026-04-29 11:18 42.13144 46.66036 38488 ft 444 kts 237°
2026-04-29 11:18 42.11500 46.62523 38160 ft 442 kts 237°
2026-04-29 11:18 42.09865 46.59033 37576 ft 440 kts 237°
2026-04-29 11:18 42.08233 46.55556 36914 ft 439 kts 237°
2026-04-29 11:19 42.06599 46.52077 36243 ft 438 kts 237°
2026-04-29 11:19 42.04971 46.48617 35558 ft 439 kts 237°
2026-04-29 11:19 42.03334 46.45140 34812 ft 441 kts 237°
2026-04-29 11:19 42.01687 46.41645 34016 ft 444 kts 237°
2026-04-29 11:20 42.00028 46.38127 33164 ft 446 kts 237°
2026-04-29 11:20 41.98376 46.34629 32623 ft 441 kts 237°
2026-04-29 11:20 41.96741 46.31163 32073 ft 437 kts 237°
2026-04-29 11:20 41.95388 46.27530 31539 ft 435 kts 248°
2026-04-29 11:21 41.94402 46.23776 30991 ft 433 kts 250°
2026-04-29 11:21 41.93475 46.19873 30416 ft 431 kts 251°
2026-04-29 11:21 41.92616 46.16073 29803 ft 430 kts 251°
2026-04-29 11:21 41.91766 46.12252 29246 ft 426 kts 251°
2026-04-29 11:22 41.90924 46.08456 28682 ft 422 kts 252°
2026-04-29 11:22 41.90083 46.04699 28135 ft 419 kts 251°
2026-04-29 11:22 41.89238 46.00960 27580 ft 417 kts 251°
2026-04-29 11:22 41.88395 45.97250 27035 ft 414 kts 251°
2026-04-29 11:23 41.87554 45.93572 26489 ft 412 kts 252°
2026-04-29 11:23 41.86714 45.89910 25939 ft 410 kts 252°
2026-04-29 11:23 41.85876 45.86266 25393 ft 408 kts 252°
2026-04-29 11:23 41.85043 45.82648 24838 ft 406 kts 252°
2026-04-29 11:24 41.84210 45.79036 24289 ft 404 kts 252°
2026-04-29 11:24 41.83381 45.75447 23723 ft 403 kts 252°
2026-04-29 11:24 41.82552 45.71856 23083 ft 401 kts 252°
2026-04-29 11:24 41.81730 45.68304 22528 ft 397 kts 252°
2026-04-29 11:25 41.80916 45.64787 21953 ft 394 kts 252°
2026-04-29 11:25 41.80107 45.61301 21391 ft 391 kts 252°
2026-04-29 11:25 41.79301 45.57833 20826 ft 388 kts 252°
2026-04-29 11:25 41.78499 45.54388 20262 ft 386 kts 252°
2026-04-29 11:26 41.76906 45.47567 19119 ft 382 kts 252°
2026-04-29 11:26 41.76114 45.44180 18564 ft 380 kts 252°
2026-04-29 11:26 41.75323 45.40806 17961 ft 379 kts 252°
2026-04-29 11:27 41.74535 45.37452 17362 ft 376 kts 253°
2026-04-29 11:27 41.73778 45.34227 16826 ft 373 kts 253°
2026-04-29 11:27 41.73018 45.30994 16275 ft 370 kts 253°
2026-04-29 11:27 41.72326 45.27698 15735 ft 367 kts 259°
2026-04-29 11:28 41.72146 45.24358 15217 ft 363 kts 274°
2026-04-29 11:28 41.72659 45.21081 14675 ft 360 kts 289°
2026-04-29 11:28 41.73544 45.17953 14124 ft 358 kts 292°
2026-04-29 11:28 41.74476 45.14867 13544 ft 356 kts 292°
2026-04-29 11:29 41.75403 45.11802 12988 ft 352 kts 292°
2026-04-29 11:29 41.76315 45.08776 12378 ft 350 kts 292°
2026-04-29 11:29 41.77223 45.05755 11804 ft 348 kts 292°
2026-04-29 11:29 41.78121 45.02762 11275 ft 345 kts 292°
2026-04-29 11:30 41.78985 44.99877 11094 ft 317 kts 292°
2026-04-29 11:30 41.79763 44.97276 10999 ft 288 kts 292°
2026-04-29 11:30 41.80491 44.94836 10902 ft 276 kts 292°
2026-04-29 11:30 41.81191 44.92489 10772 ft 269 kts 292°
2026-04-29 11:31 41.81885 44.90161 10619 ft 269 kts 292°
2026-04-29 11:31 41.82579 44.87831 10288 ft 269 kts 292°
2026-04-29 11:31 41.83271 44.85509 9951 ft 268 kts 292°
2026-04-29 11:31 41.83972 44.83153 9619 ft 280 kts 292°
2026-04-29 11:32 41.84704 44.80692 9426 ft 286 kts 292°
2026-04-29 11:32 41.85441 44.78209 9109 ft 286 kts 292°
2026-04-29 11:32 41.86178 44.75725 8681 ft 284 kts 292°
2026-04-29 11:32 41.86894 44.73307 8521 ft 273 kts 292°
2026-04-29 11:33 41.87581 44.70988 8408 ft 262 kts 292°
2026-04-29 11:33 41.88237 44.68769 8275 ft 246 kts 292°
2026-04-29 11:33 41.88736 44.66604 8017 ft 240 kts 278°
2026-04-29 11:33 41.88578 44.64417 7752 ft 238 kts 248°
2026-04-29 11:34 41.87602 44.62666 7438 ft 235 kts 216°
2026-04-29 11:34 41.86166 44.61837 7304 ft 225 kts 188°
2026-04-29 11:34 41.84657 44.61995 7181 ft 215 kts 160°
2026-04-29 11:34 41.83430 44.63010 7120 ft 200 kts 135°
2026-04-29 11:35 41.82696 44.64506 7028 ft 188 kts 111°
2026-04-29 11:35 41.82320 44.66132 6933 ft 176 kts 104°
2026-04-29 11:35 41.82022 44.67684 6777 ft 169 kts 104°
2026-04-29 11:35 41.81729 44.69196 6533 ft 166 kts 105°
2026-04-29 11:36 41.81431 44.70688 6347 ft 165 kts 105°
2026-04-29 11:36 41.81132 44.72165 6223 ft 163 kts 105°
2026-04-29 11:36 41.80831 44.73639 6196 ft 164 kts 105°
2026-04-29 11:36 41.80546 44.75036 6179 ft 176 kts 105°
2026-04-29 11:37 41.80196 44.76736 6091 ft 189 kts 105°
2026-04-29 11:37 41.79800 44.78332 5987 ft 175 kts 117°
2026-04-29 11:37 41.79085 44.79589 5799 ft 165 kts 134°
2026-04-29 11:37 41.78284 44.80644 5545 ft 162 kts 135°
2026-04-29 11:38 41.77473 44.81702 5310 ft 160 kts 136°
2026-04-29 11:38 41.76671 44.82729 5236 ft 160 kts 133°
2026-04-29 11:38 41.75936 44.83795 4908 ft 159 kts 131°
2026-04-29 11:38 41.75111 44.84850 4327 ft 168 kts 136°
2026-04-29 11:39 41.74287 44.85908 4016 ft 161 kts 136°
2026-04-29 11:39 41.73467 44.86940 3563 ft 165 kts 135°
2026-04-29 11:39 41.72618 44.87979 3093 ft 164 kts 140°
2026-04-29 11:39 41.71804 44.88950 2871 ft 152 kts 138°
2026-04-29 11:40 41.71041 44.89874 2595 ft 144 kts 137°
2026-04-29 11:40 41.70339 44.90773 2361 ft 134 kts 139°
2026-04-29 11:40 41.69668 44.91614 2185 ft 133 kts 138°
2026-04-29 11:40 41.68990 44.92469 1997 ft 137 kts 140°
2026-04-29 11:41 41.68300 44.93348 1733 ft 136 kts 139°
2026-04-29 11:41 41.67630 44.94212 1551 ft 132 kts 136°
2026-04-29 11:41 41.66995 44.95002 1525 ft 114 kts 137°
2026-04-29 11:41 41.66503 44.95629 1528 ft 83 kts 136°
2026-04-29 11:42 41.66142 44.96079 1524 ft 60 kts 137°
2026-04-29 11:42 41.65908 44.96374 1526 ft 15 kts 136°
2026-04-29 11:42 41.65864 44.96435 1524 ft 10 kts 127°
2026-04-29 11:42 41.65847 44.96526 1525 ft 10 kts 85°
2026-04-29 11:43 41.65890 44.96592 1525 ft 10 kts 21°
2026-04-29 11:43 41.65959 44.96568 1526 ft 11 kts 322°
2026-04-29 11:43 41.66024 44.96493 1524 ft 14 kts 319°
2026-04-29 11:43 41.66095 44.96397 1524 ft 16 kts 314°
2026-04-29 11:44 41.66190 44.96313 1528 ft 17 kts 341°
2026-04-29 11:44 41.66303 44.96307 1526 ft 16 kts 11°
2026-04-29 11:44 41.66414 44.96343 1526 ft 17 kts 14°
2026-04-29 11:44 41.66523 44.96379 1525 ft 0 kts 13°
2026-04-29 11:45 41.66535 44.96383 1527 ft 6 kts 13°
2026-04-29 11:45 41.66587 44.96399 1529 ft 9 kts 13°
2026-04-29 11:46 41.66660 44.96422 1525 ft 12 kts 13°
2026-04-29 11:46 41.66743 44.96396 1529 ft 14 kts 323°
2026-04-29 11:46 41.66813 44.96309 1525 ft 2 kts 322°
2026-04-29 11:46 41.66829 44.96302 1527 ft 7 kts 346°
2026-04-29 11:47 41.66868 44.96319 1526 ft 7 kts 29°
2026-04-29 11:47 41.66884 44.96335 1524 ft 0 kts 39°